リニア彗星

209P/LINEAR (2009)

English version
Home page
Updated on March 17, 2010

---------------------------------------------------------------------

・ プロフィール

符号 209P/2008 X2
検出日 2008年12月4日
検出光度 19.7等
検出者 G. Hug (Scranton, KS, U.S.A.)

・ 写真集

・ 軌道要素

                    Epoch = 2009 Mar. 30.0 TT
     T = 2009 Apr. 15.9744 TT         Peri. = 149.7295
     e = 0.688978                     Node  =  66.4497  2000.0
     q = 0.913706 AU                  Incl. =  19.1479
       a =  2.937753 AU    n = 0.1957407    P =   5.04 years

・ 星図

・ 光度変化

        m1 = 18.0 + 5 logΔ + 2.0 log r

---------------------------------------------------------------------

軌道要素は、IAUC 9002に掲載されたものです。
星図はステラナビゲータ Ver.8 (アストロアーツ) で作成したものです。
光度グラフはComet for Windowsで作成したものです。

---------------------------------------------------------------------

Copyright(C) Seiichi Yoshida (comet@aerith.net). All rights reserved.